Location: Newark
(55.7816°N, 8.2389°E)
Time: 07:09:37
(UTC+00:00)

N. Korean satellite - Visible Passes

Search period start: 07 December 2019 00:00
Search period end: 17 December 2019 00:00
Orbit: 456 x 506 km, 97.2° (Epoch: 06 December)

Date Brightness Start Highest point End Pass type
(mag) Time Alt. Az. Time Alt. Az. Time Alt. Az.
07 Dec 9.0 04:42:50 10° NE 04:45:50 24° E 04:48:46 10° SSE visible
07 Dec 7.0 06:15:59 10° N 06:19:21 38° WNW 06:22:40 10° SW visible
07 Dec 8.6 16:58:27 10° SSW 17:01:50 32° W 17:05:13 10° NNW visible
08 Dec 9.8 04:18:07 10° NE 04:20:08 14° E 04:22:07 10° ESE visible
08 Dec 6.4 05:50:24 10° N 05:53:59 69° WNW 05:57:31 10° SSW visible
08 Dec 7.3 16:32:38 10° S 16:36:18 58° W 16:39:58 10° NNW visible
09 Dec 6.9 05:24:57 10° NNE 05:28:33 65° ESE 05:32:03 10° S visible
09 Dec 6.6 16:07:08 10° SSE 16:10:51 79° ENE 16:14:33 10° NNW visible
09 Dec 10.0 17:42:49 10° WSW 17:44:44 14° W 17:46:39 10° NW visible
10 Dec 8.2 04:59:41 10° NNE 05:03:01 35° E 05:06:16 10° SSE visible
10 Dec 7.5 06:33:16 10° N 06:36:20 27° WNW 06:39:20 10° WSW visible
10 Dec 7.0 15:41:55 10° SE 15:45:28 44° ENE 15:48:59 10° N visible
10 Dec 9.3 17:16:04 10° SW 17:19:03 23° W 17:22:01 10° NW visible
11 Dec 9.3 04:34:40 10° NE 04:37:23 20° E 04:40:03 10° SE visible
11 Dec 6.8 06:07:34 10° N 06:11:01 45° WNW 06:14:23 10° SW visible
11 Dec 8.2 16:49:58 10° SSW 16:53:27 38° W 16:56:55 10° NNW visible
12 Dec 10.0 04:10:18 10° ENE 04:11:39 12° E 04:13:01 10° ESE visible
12 Dec 6.4 05:42:02 10° NNE 05:45:38 83° WNW 05:49:07 10° SSW visible
12 Dec 7.0 16:24:14 10° S 16:27:55 70° WSW 16:31:37 10° NNW visible
13 Dec 7.3 05:16:39 10° NNE 05:20:08 52° E 05:23:34 10° S visible
13 Dec 7.9 06:50:39 10° NNW 06:53:15 19° WNW 06:55:49 10° WSW visible
13 Dec 6.6 15:58:50 10° SSE 16:02:29 65° ENE 16:06:08 10° N visible
13 Dec 9.8 17:33:57 10° SW 17:36:16 16° W 17:38:36 10° NW visible
14 Dec 8.6 04:51:26 10° NNE 04:54:34 29° E 04:57:39 10° SSE visible
14 Dec 7.2 06:24:49 10° N 06:27:59 31° WNW 06:31:06 10° SW visible
14 Dec 9.0 17:07:27 10° SSW 17:10:36 26° W 17:13:46 10° NW visible
15 Dec 9.5 04:26:32 10° NE 04:28:55 17° E 04:31:14 10° SE visible
15 Dec 6.5 05:59:10 10° N 06:02:39 54° WNW 06:06:03 10° SSW visible
15 Dec 7.8 16:41:28 10° S 16:45:02 46° W 16:48:34 10° NNW visible
16 Dec 6.5 05:33:40 10° NNE 05:37:13 81° ESE 05:40:41 10° SSW visible
16 Dec 6.7 16:15:51 10° SSE 16:19:32 84° WSW 16:23:12 10° NNW visible
16 Dec 10.1 17:52:31 10° W 17:53:32 11° W 17:54:32 10° WNW visible
